Weather History for Minden, LA

Change the Weather History Date:

Wednesday, October 5, 2011

  Actual Average (KBAD) Record (KBAD)
Temperature  
Mean Temperature 70 °F -  
Max Temperature 89 °F 76 °F 89 °F (2005)
Min Temperature 51 °F 56 °F 42 °F (2010)
Cooling Degree Days 5    
Growing Degree Days 20 (Base 50)    
Moisture  
Dew Point 46 °F    
Average Humidity 45    
Maximum Humidity 82    
Minimum Humidity 22    
Precipitation  
Precipitation 0.00 in - - ()
Sea Level Pressure  
Sea Level Pressure 30.17 in    
Wind  
Wind Speed 2 mph ()    
Max Wind Speed 7 mph    
Max Gust Speed -    
Visibility 10.0 miles    
Events      
Averages and records for this station are not official NWS values.
T = Trace of Precipitation, MM = Missing Value Source: Averaged Metar Reports

Daily Weather History Graph

Daily Weather History Graph

Search for Another Location

Airport:

Trip Planner

Search our weather history database for the weather conditions in past years. The results will help you decide how hot, cold, wet, or windy it might be!

Date:

Astronomy

Oct. 05, 2011 Rise Set
Actual Time 7:09 AM CDT 6:52 PM CDT
Civil Twilight 6:45 AM CDT 7:17 PM CDT
Nautical Twilight 6:16 AM CDT 7:46 PM CDT
Astronomical Twilight 5:48 AM CDT 8:14 PM CDT
Moon 3:16 PM CDT (10/5) 1:16 AM CDT (10/5)
Length of Visible Light 12h 32m
Length of Day
11h 43m
Waxing Gibbous, 66% of the Moon is Illuminated
Oct 5
Waxing Gibbous
Oct 11
Full
Oct 19
Last Quarter
Oct 26
New
Nov 2
First Quarter

Hourly Weather History & Observations

Time (CDT) Temp. Dew Point Humidity Pressure Visibility Wind Dir Wind Speed Gust Speed Precip Events Conditions
12:15 AM 60.8 °F 42.8 °F 52% 30.21 in 10.0 mi Calm Calm - N/A   Clear
12:35 AM 59.0 °F 42.8 °F 55% 30.21 in 10.0 mi Calm Calm - N/A   Clear
12:55 AM 59.0 °F 44.6 °F 59% 30.21 in 10.0 mi Calm Calm - N/A   Clear
1:15 AM 59.0 °F 44.6 °F 59% 30.20 in 10.0 mi Calm Calm - N/A   Clear
1:35 AM 59.0 °F 44.6 °F 59% 30.20 in 10.0 mi East 3.5 mph - N/A   Clear
1:55 AM 60.8 °F 42.8 °F 52% 30.20 in 10.0 mi Calm Calm - N/A   Clear
2:15 AM 60.8 °F 42.8 °F 52% 30.20 in 10.0 mi East 3.5 mph - N/A   Clear
2:35 AM 60.8 °F 42.8 °F 52% 30.20 in 10.0 mi Calm Calm - N/A   Clear
2:55 AM 59.0 °F 42.8 °F 55% 30.20 in 10.0 mi Calm Calm - N/A   Clear
3:15 AM 60.8 °F 42.8 °F 52% 30.20 in 10.0 mi East 3.5 mph - N/A   Clear
3:35 AM 59.0 °F 44.6 °F 59% 30.20 in 10.0 mi Calm Calm - N/A   Clear
3:55 AM 55.4 °F 44.6 °F 67% 30.20 in 10.0 mi Calm Calm - N/A   Clear
4:15 AM 55.4 °F 44.6 °F 67% 30.20 in 10.0 mi East 3.5 mph - N/A   Clear
4:35 AM 55.4 °F 44.6 °F 67% 30.20 in 10.0 mi Calm Calm - N/A   Clear
5:15 AM 53.6 °F 44.6 °F 72% 30.20 in 10.0 mi Calm Calm - N/A   Clear
5:35 AM 53.6 °F 44.6 °F 72% 30.20 in 10.0 mi Calm Calm - N/A   Clear
6:15 AM 51.8 °F 44.6 °F 76% 30.22 in 10.0 mi Calm Calm - N/A   Clear
6:35 AM 51.8 °F 46.4 °F 82% 30.22 in 10.0 mi Calm Calm - N/A   Clear
6:55 AM 51.8 °F 44.6 °F 76% 30.23 in 10.0 mi Calm Calm - N/A   Clear
7:15 AM 51.8 °F 44.6 °F 76% 30.23 in 10.0 mi Calm Calm - N/A   Clear
7:35 AM 51.8 °F 44.6 °F 76% 30.23 in 10.0 mi Calm Calm - N/A   Clear
7:55 AM 55.4 °F 46.4 °F 72% 30.23 in 10.0 mi Calm Calm - N/A   Clear
8:15 AM 60.8 °F 50.0 °F 68% 30.24 in 10.0 mi Calm Calm - N/A   Clear
8:35 AM 64.4 °F 48.2 °F 56% 30.24 in 10.0 mi East 4.6 mph - N/A   Clear
8:55 AM 66.2 °F 50.0 °F 56% 30.24 in 10.0 mi ESE 4.6 mph - N/A   Clear
9:15 AM 68.0 °F 50.0 °F 52% 30.24 in 10.0 mi SE 4.6 mph - N/A   Clear
9:35 AM 69.8 °F 50.0 °F 49% 30.24 in 10.0 mi SE 4.6 mph - N/A   Clear
9:55 AM 69.8 °F 50.0 °F 49% 30.24 in 10.0 mi Calm Calm - N/A   Clear
10:15 AM 71.6 °F 50.0 °F 46% 30.24 in 10.0 mi ESE 3.5 mph - N/A   Clear
10:35 AM 73.4 °F 50.0 °F 44% 30.25 in 10.0 mi Calm Calm - N/A   Clear
10:55 AM 77.0 °F 50.0 °F 39% 30.24 in 10.0 mi Calm Calm - N/A   Clear
11:15 AM 78.8 °F 50.0 °F 36% 30.24 in 10.0 mi Calm Calm - N/A   Clear
11:35 AM 78.8 °F 50.0 °F 36% 30.23 in 10.0 mi Calm Calm - N/A   Clear
11:55 AM 80.6 °F 48.2 °F 32% 30.23 in 10.0 mi Calm Calm - N/A   Clear
12:15 PM 80.6 °F 48.2 °F 32% 30.22 in 10.0 mi South 3.5 mph - N/A   Clear
12:35 PM 82.4 °F 48.2 °F 30% 30.21 in 10.0 mi SSE 4.6 mph - N/A   Clear
12:55 PM 82.4 °F 46.4 °F 28% 30.19 in 10.0 mi SE 3.5 mph - N/A   Clear
1:15 PM 86.0 °F 46.4 °F 25% 30.18 in 10.0 mi South 4.6 mph - N/A   Clear
1:35 PM 86.0 °F 44.6 °F 23% 30.17 in 10.0 mi ESE 3.5 mph - N/A   Clear
2:15 PM 86.0 °F 46.4 °F 25% 30.15 in 10.0 mi SE 6.9 mph - N/A   Clear
2:55 PM 87.8 °F 46.4 °F 24% 30.14 in 10.0 mi Calm Calm - N/A   Clear
3:15 PM 87.8 °F 46.4 °F 24% 30.12 in 10.0 mi Calm Calm - N/A   Clear
3:35 PM 89.6 °F 46.4 °F 22% 30.11 in 10.0 mi SSW 4.6 mph - N/A   Clear
4:15 PM 89.6 °F 46.4 °F 22% 30.10 in 10.0 mi NE 4.6 mph - N/A   Clear
4:35 PM 89.6 °F 46.4 °F 22% 30.09 in 10.0 mi SE 3.5 mph - N/A   Clear
4:55 PM 89.6 °F 46.4 °F 22% 30.09 in 10.0 mi ESE 6.9 mph - N/A   Clear
5:15 PM 87.8 °F 46.4 °F 24% 30.09 in 10.0 mi SE 5.8 mph - N/A   Clear
5:35 PM 87.8 °F 44.6 °F 22% 30.09 in 10.0 mi East 4.6 mph - N/A   Clear
5:55 PM 87.8 °F 44.6 °F 22% 30.09 in 10.0 mi SE 4.6 mph - N/A   Clear
6:15 PM 86.0 °F 46.4 °F 25% 30.09 in 10.0 mi Calm Calm - N/A   Clear
6:35 PM 82.4 °F 46.4 °F 28% 30.09 in 10.0 mi Calm Calm - N/A   Clear
6:55 PM 80.6 °F 46.4 °F 30% 30.09 in 10.0 mi East 4.6 mph - N/A   Clear
7:15 PM 78.8 °F 46.4 °F 32% 30.09 in 10.0 mi East 4.6 mph - N/A   Clear
7:35 PM 78.8 °F 48.2 °F 34% 30.10 in 10.0 mi East 3.5 mph - N/A   Clear
8:15 PM 77.0 °F 46.4 °F 34% 30.11 in 10.0 mi East 4.6 mph - N/A   Clear
8:35 PM 75.2 °F 46.4 °F 36% 30.11 in 10.0 mi East 4.6 mph - N/A   Clear
8:55 PM 73.4 °F 46.4 °F 38% 30.12 in 10.0 mi East 3.5 mph - N/A   Clear
9:15 PM 73.4 °F 46.4 °F 38% 30.12 in 10.0 mi East 3.5 mph - N/A   Clear
9:35 PM 71.6 °F 46.4 °F 41% 30.13 in 10.0 mi ESE 3.5 mph - N/A   Clear
9:55 PM 69.8 °F 46.4 °F 43% 30.13 in 10.0 mi ESE 4.6 mph - N/A   Clear
10:15 PM 69.8 °F 46.4 °F 43% 30.13 in 10.0 mi East 3.5 mph - N/A   Clear
10:35 PM 69.8 °F 46.4 °F 43% 30.13 in 10.0 mi East 3.5 mph - N/A   Clear
10:55 PM 69.8 °F 46.4 °F 43% 30.13 in 10.0 mi East 3.5 mph - N/A   Clear
11:15 PM 68.0 °F 46.4 °F 46% 30.13 in 10.0 mi Calm Calm - N/A   Clear
11:35 PM 68.0 °F 48.2 °F 49% 30.13 in 10.0 mi Calm Calm - N/A   Clear